Le nostre stazioni meteo in Italia

Pubblicità
Il mio iltempo24.it
Besancon, Francia (7288): Temperatura & dewpoint: 15.01.2017 22:00:00 - 21.01.2017 22:00:00 (CET)Besancon, Francia (7288): Temperatura 5cm: 15.01.2017 22:00:00 - 21.01.2017 22:00:00 (CET)Besancon, Francia (7288): Temperatura -20cm & Temperatura -100cm: 15.01.2017 22:00:00 - 21.01.2017 22:00:00 (CET)Besancon, Francia (7288): velocità del vento & gusts: 15.01.2017 22:00:00 - 21.01.2017 22:00:00 (CET)Besancon, Francia (7288): direzione del vento: 15.01.2017 22:00:00 - 21.01.2017 22:00:00 (CET)Besancon, Francia (7288): reduced air pressure: 15.01.2017 22:00:00 - 21.01.2017 22:00:00 (CET)Besancon, Francia (7288): visibility: 15.01.2017 22:00:00 - 21.01.2017 22:00:00 (CET)Besancon, Francia (7288): ore di luce: 15.01.2017 22:00:00 - 21.01.2017 22:00:00 (CET)Besancon, Francia (7288): precipitazioni: 15.01.2017 22:00:00 - 21.01.2017 22:00:00 (CET)
Data & Tempo tt [°C] td [°C] tt 5cm [°C] tt -20cm [°C] tt -100cm [°C] ff [km/h] ff [kn] fx [km/h] fx [kn] dd ppp [hPa] vv [km] sd [min] rr [mm]
21.01.2017 22:00:00 -3,6 -6,4 -9,2 1,6 5,5 4 2 9 5 NNE 1027,3 - 0 0,0
21.01.2017 21:00:00 -3,1 -5,6 -9,4 1,6 5,5 0 0 8 4 N 1027,2 - 0 0,0
21.01.2017 20:00:00 -3,0 -5,8 -9,0 1,6 5,5 0 0 8 4 N 1027,3 - 0 0,0
21.01.2017 19:00:00 -2,3 -6,0 -7,8 1,6 5,6 3 2 7 4 NNE 1027,0 - 0 0,0
21.01.2017 18:00:00 -0,8 -5,4 -6,8 1,6 5,5 2 1 7 4 NE 1026,9 - 5 0,0
21.01.2017 17:00:00 1,2 -5,3 -4,7 1,6 5,6 4 2 9 5 NNE 1026,7 - 60 0,0
21.01.2017 16:00:00 4,1 -4,6 6,0 1,6 5,5 0 0 4 2 N 1026,4 14 60 0,0
21.01.2017 15:00:00 3,0 -4,9 4,0 1,6 5,6 2 1 8 4 NO 1026,7 14 60 0,0
21.01.2017 14:00:00 1,3 -5,4 8,1 1,6 5,6 4 2 6 4 NNE 1027,5 14 60 0,0
21.01.2017 13:00:00 1,1 -5,2 8,5 1,6 5,6 0 0 6 3 N 1028,1 14 60 0,0
21.01.2017 12:00:00 0,6 -5,9 -1,3 1,6 5,6 0 0 5 3 N 1028,7 12 60 0,0
21.01.2017 11:00:00 -3,8 -6,0 -9,2 1,7 5,6 2 1 4 2 N 1029,9 10 60 0,0
21.01.2017 10:00:00 -6,4 -7,9 -13,0 1,7 5,6 2 1 5 3 NNE 1030,5 10 20 0,0
21.01.2017 09:00:00 -9,3 -10,5 -13,8 1,7 5,6 3 1 5 3 NNE 1030,6 7 8 0,0
21.01.2017 08:00:00 -9,3 -10,4 -14,0 1,7 5,6 0 0 5 3 N 1030,5 7 0 0,0
21.01.2017 07:00:00 -8,8 -9,9 -13,6 1,7 5,6 3 2 6 3 NNE 1030,4 7 0 0,0
21.01.2017 06:00:00 -8,4 -9,5 -13,4 1,7 5,6 0 0 4 2 N 1030,6 7 0 0,0
21.01.2017 05:00:00 -8,2 -9,3 -13,1 1,7 5,6 0 0 6 3 N 1030,7 - 0 0,0
21.01.2017 04:00:00 -7,7 -8,8 -13,1 1,8 5,6 0 0 6 4 N 1030,9 - 0 0,0
21.01.2017 03:00:00 -7,1 -8,3 -12,7 1,7 5,6 0 0 5 3 N 1030,9 - 0 0,0
21.01.2017 02:00:00 -6,9 -8,1 -12,5 1,7 5,6 0 0 4 2 N 1030,7 - 0 0,0
21.01.2017 01:00:00 -6,2 -7,7 -12,1 1,7 5,6 0 0 9 5 N 1030,7 - 0 0,0
21.01.2017 00:00:00 -6,0 -7,8 -11,3 1,7 5,6 0 0 7 4 N 1030,4 - 0 0,0
20.01.2017 23:00:00 -5,7 -7,7 -11,2 1,7 5,6 0 0 8 4 N 1030,4 - 0 0,0
20.01.2017 22:00:00 -5,5 -7,3 -11,2 1,8 5,6 0 0 5 3 N 1030,6 - 0 0,0
20.01.2017 21:00:00 -4,9 -7,2 -10,1 1,8 5,6 0 0 6 4 N 1030,6 - 0 0,0
20.01.2017 20:00:00 -4,5 -7,1 -10,4 1,8 5,6 0 0 7 4 N 1030,6 - 0 0,0
20.01.2017 19:00:00 -3,7 -6,8 -9,7 1,8 5,6 0 0 6 4 N 1030,6 - 0 0,0
20.01.2017 18:00:00 -2,5 -6,3 -8,5 1,8 5,6 2 1 4 2 NNE 1030,4 - 1 0,0
20.01.2017 17:00:00 -0,3 -6,1 -5,0 1,8 5,7 0 0 7 4 N 1030,2 10 60 0,0
20.01.2017 16:00:00 1,4 -6,2 4,1 1,8 5,6 4 2 7 4 N 1029,8 - 60 0,0
20.01.2017 15:00:00 1,7 -6,2 3,4 1,8 5,6 3 2 6 3 N 1030,0 10 60 0,0
20.01.2017 14:00:00 0,9 -6,9 7,4 1,8 5,7 3 2 9 5 NE 1030,2 10 60 0,0
20.01.2017 13:00:00 0,1 -7,0 6,4 1,8 5,6 2 1 10 5 E 1030,7 10 60 0,0
20.01.2017 12:00:00 -1,8 -6,9 1,6 1,9 5,7 0 0 6 4 N 1031,7 - 60 0,0
20.01.2017 11:00:00 -3,9 -7,7 -7,8 1,9 5,7 3 1 5 3 ESE 1032,4 10 60 0,0
20.01.2017 10:00:00 -6,0 -8,4 -12,1 1,9 5,7 0 0 5 3 N 1032,3 10 16 0,0
20.01.2017 09:00:00 -8,2 -9,4 -13,5 1,9 5,7 2 1 7 4 ENE 1032,3 10 2 0,0
20.01.2017 08:00:00 -8,4 -9,5 -13,4 1,9 5,7 0 0 4 2 N 1032,4 10 0 0,0
20.01.2017 07:00:00 -7,7 -9,1 -12,6 1,9 5,7 0 0 7 4 N 1032,3 10 0 0,0
20.01.2017 06:00:00 -8,1 -9,3 -13,3 1,9 5,7 2 1 6 3 ENE 1032,3 10 0 0,0
20.01.2017 05:00:00 -8,1 -9,3 -13,2 2,0 5,7 2 1 7 4 E 1032,1 - 0 0,0
20.01.2017 04:00:00 -7,9 -9,3 -13,2 1,9 5,7 0 0 7 4 N 1032,1 - 0 0,0
20.01.2017 03:00:00 -7,5 -9,0 -12,7 1,9 5,7 0 0 5 3 N 1032,0 - 0 0,0
20.01.2017 02:00:00 -7,1 -8,8 -12,4 2,0 5,7 0 0 6 3 N 1031,8 - 0 0,0
20.01.2017 01:00:00 -6,5 -8,6 -11,8 2,0 5,7 0 0 8 4 N 1031,9 - 0 0,0
20.01.2017 00:00:00 -5,9 -8,2 -10,1 2,0 5,7 4 2 13 7 ENE 1031,8 - 0 0,0
19.01.2017 23:00:00 -5,8 -8,1 -9,6 2,0 5,7 4 2 19 10 ENE 1031,7 - 0 0,0
19.01.2017 22:00:00 -5,8 -8,1 -9,5 2,0 5,7 4 2 14 8 NE 1031,5 - 0 0,0
19.01.2017 21:00:00 -5,7 -8,3 -9,1 2,0 5,7 5 3 14 8 NE 1031,6 - 0 0,0
19.01.2017 20:00:00 -5,2 -8,1 -8,8 2,0 5,7 6 3 17 9 NE 1031,7 - 0 0,0
19.01.2017 19:00:00 -4,4 -7,8 -7,0 2,0 5,7 8 4 19 10 NE 1031,6 - 0 0,0
19.01.2017 18:00:00 -3,7 -7,7 -6,4 2,0 5,7 7 4 18 10 NE 1031,6 - 0 0,0
19.01.2017 17:00:00 -2,6 -7,1 -4,0 2,0 5,7 8 4 22 12 NNE 1031,3 10 53 0,0
19.01.2017 16:00:00 -1,2 -6,7 0,7 2,0 5,7 6 3 22 12 NE 1031,1 10 60 0,0
19.01.2017 15:00:00 -0,9 -6,9 -0,2 2,0 5,7 8 4 23 13 NE 1030,9 10 60 0,0
19.01.2017 14:00:00 -1,1 -6,9 3,0 2,1 5,7 9 5 20 11 NNE 1030,8 10 60 0,0
19.01.2017 13:00:00 -1,7 -7,0 3,4 2,1 5,7 9 5 18 10 NNE 1031,2 10 60 0,0
19.01.2017 12:00:00 -2,2 -7,3 1,6 2,1 5,7 6 4 19 10 NE 1031,6 10 60 0,0
19.01.2017 11:00:00 -3,0 -7,5 -4,5 2,1 5,7 7 4 19 11 NE 1031,7 10 60 0,0
19.01.2017 10:00:00 -4,4 -8,0 -7,9 2,1 5,7 5 3 19 10 NE 1031,3 9 16 0,0
19.01.2017 09:00:00 -6,2 -8,5 -9,8 2,1 5,7 6 3 20 11 NE 1031,3 9 0 0,0
19.01.2017 08:00:00 -6,5 -8,8 -10,0 2,1 5,7 5 3 18 10 NE 1031,0 8 0 0,0
19.01.2017 07:00:00 -6,4 -8,8 -10,6 2,2 5,7 5 3 19 11 NE 1030,7 9 0 0,0
19.01.2017 06:00:00 -5,9 -8,6 -9,0 2,2 5,7 6 3 15 8 NE 1030,3 9 0 0,0
19.01.2017 05:00:00 -5,8 -8,7 -9,0 2,2 5,8 6 3 19 11 NE 1030,5 - 0 0,0
19.01.2017 04:00:00 -5,5 -8,6 -8,7 2,2 5,7 6 3 19 11 NE 1030,7 - 0 0,0
19.01.2017 03:00:00 -5,3 -8,7 -7,9 2,3 5,8 7 4 16 9 NE 1030,4 - 0 0,0
19.01.2017 02:00:00 -4,8 -8,6 -7,6 2,3 5,8 9 5 19 10 NNE 1030,0 - 0 0,0
19.01.2017 01:00:00 -4,6 -8,5 -7,4 2,3 5,8 8 4 21 11 NE 1030,0 - 0 0,0
19.01.2017 00:00:00 -4,2 -8,3 -6,1 2,3 5,8 8 5 26 14 NE 1029,9 - 0 0,0
18.01.2017 23:00:00 -3,4 -8,1 -5,0 2,3 5,8 11 6 27 15 NE 1030,0 - 0 0,0
18.01.2017 22:00:00 -2,8 -7,7 -3,5 2,3 5,8 9 5 23 13 NE 1030,2 - 0 0,0
18.01.2017 21:00:00 -2,7 -7,8 -4,0 2,3 5,8 6 3 29 16 NE 1030,6 - 0 0,0
18.01.2017 20:00:00 -2,6 -8,3 -3,9 2,3 5,8 8 4 33 18 NE 1030,9 - 0 0,0
18.01.2017 19:00:00 -2,6 -8,1 -4,6 2,3 5,8 8 4 31 17 NE 1030,7 - 0 0,0
18.01.2017 18:00:00 -3,1 -8,4 -5,3 2,3 5,8 5 3 29 15 NE 1030,9 - 0 0,0
18.01.2017 17:00:00 -2,5 -8,2 -3,4 2,3 5,8 9 5 30 16 NE 1030,8 - 43 0,0
18.01.2017 16:00:00 -1,7 -8,0 -0,3 2,3 5,8 9 5 33 18 NE 1030,3 20 60 0,0
18.01.2017 15:00:00 -1,5 -8,1 -0,5 2,4 5,8 10 5 39 21 NE 1030,0 20 60 0,0
18.01.2017 14:00:00 -1,8 -8,1 0,5 2,3 5,8 12 6 35 19 NE 1029,8 20 52 0,0
18.01.2017 13:00:00 -1,8 -8,3 1,3 2,4 5,8 10 5 37 20 NE 1030,2 20 58 0,0
18.01.2017 12:00:00 -2,6 -8,7 0,1 2,3 5,7 12 7 46 25 NE 1030,6 20 57 0,0
18.01.2017 11:00:00 -3,4 -8,5 -3,4 2,4 5,8 14 8 42 23 NE 1030,8 15 35 0,0
18.01.2017 10:00:00 -3,9 -8,6 -4,3 2,4 5,8 8 5 38 20 ENE 1030,3 15 2 0,0
18.01.2017 09:00:00 -4,2 -8,5 -4,5 2,4 5,8 10 5 36 20 NE 1030,2 12 0 0,0
18.01.2017 08:00:00 -4,3 -8,6 -4,7 2,4 5,8 11 6 35 19 NE 1029,7 12 0 0,0
18.01.2017 07:00:00 -4,4 -8,3 -4,8 2,4 5,8 8 4 34 18 NE 1029,4 15 0 0,0
18.01.2017 06:00:00 -4,4 -8,7 -5,2 2,4 5,8 11 6 31 17 NE 1028,9 15 0 0,0
18.01.2017 05:00:00 -4,2 -8,3 -5,1 2,5 5,8 12 6 37 20 NE 1029,0 - 0 0,0
18.01.2017 04:00:00 -4,1 -8,4 -4,9 2,5 5,8 13 7 39 21 NE 1029,0 - 0 0,0
18.01.2017 03:00:00 -3,7 -7,7 -4,0 2,5 5,8 11 6 34 18 NE 1029,6 - 0 0,0
18.01.2017 02:00:00 -3,5 -7,8 -3,7 2,5 5,8 13 7 38 20 NE 1029,3 - 0 0,0
18.01.2017 01:00:00 -3,4 -7,7 -3,7 2,5 5,8 12 6 37 20 NE 1029,2 - 0 0,0
18.01.2017 00:00:00 -3,3 -7,5 -3,6 2,5 5,8 12 6 39 21 NE 1029,2 - 0 0,0
17.01.2017 23:00:00 -3,2 -7,5 -3,5 2,5 5,8 12 6 42 23 NE 1029,2 - 0 0,0
17.01.2017 22:00:00 -3,0 -7,3 -3,4 2,5 5,8 11 6 41 22 NE 1029,0 - 0 0,0
17.01.2017 21:00:00 -2,9 -7,8 -3,3 2,5 5,8 13 7 42 23 NE 1028,9 - 0 0,0
17.01.2017 20:00:00 -2,9 -7,8 -3,4 2,6 5,8 11 6 35 19 NE 1029,1 - 0 0,0
17.01.2017 19:00:00 -2,8 -7,9 -3,6 2,6 5,8 16 8 39 21 NNE 1029,0 - 0 0,0
17.01.2017 18:00:00 -2,7 -8,0 -4,0 2,6 5,8 10 5 32 17 NE 1029,0 - 0 0,0
17.01.2017 17:00:00 -2,7 -8,2 -3,8 2,6 5,8 13 7 39 21 NE 1028,8 18 10 0,0
17.01.2017 16:00:00 -2,2 -7,9 -2,9 2,6 5,8 13 7 34 18 NE 1028,5 15 23 0,0
17.01.2017 15:00:00 -2,8 -7,3 -3,2 2,6 5,8 7 4 31 17 ENE 1028,6 15 19 0,0
17.01.2017 14:00:00 -1,8 -7,5 0,7 2,6 5,8 10 5 31 17 NE 1028,7 15 46 0,0
17.01.2017 13:00:00 -2,4 -7,9 0,8 2,6 5,8 13 7 35 19 NE 1029,0 15 45 0,0
17.01.2017 12:00:00 -2,7 -7,1 0,4 2,7 5,8 9 5 37 20 NE 1029,4 15 46 0,0
17.01.2017 11:00:00 -3,6 -7,4 -5,8 2,7 5,8 14 8 37 20 NNE 1029,9 12 49 0,0
17.01.2017 10:00:00 -4,9 -7,8 -6,9 2,7 5,8 18 10 36 19 NNE 1029,7 12 1 0,0
17.01.2017 09:00:00 -5,6 -8,2 -8,0 2,7 5,8 14 8 29 16 NNE 1029,4 10 0 0,0
17.01.2017 08:00:00 -5,9 -8,5 -12,6 2,7 5,8 12 6 27 14 NNE 1029,0 8 0 0,0
17.01.2017 07:00:00 -7,0 -9,1 -14,2 2,7 5,8 6 3 18 10 ENE 1028,8 8 0 0,0
17.01.2017 06:00:00 -7,6 -9,1 -14,2 2,7 5,8 3 2 15 8 NE 1028,6 8 0 0,0
17.01.2017 05:00:00 -6,7 -9,0 -11,6 2,8 5,8 9 5 16 9 NNE 1028,5 - 0 0,0
17.01.2017 04:00:00 -6,5 -8,8 -12,2 2,8 5,9 8 4 23 12 NE 1028,4 - 0 0,0
17.01.2017 03:00:00 -6,2 -8,5 -13,3 2,8 5,8 7 4 19 11 NE 1028,3 - 0 0,0
17.01.2017 02:00:00 -6,3 -8,3 -12,4 2,8 5,8 4 2 13 7 ENE 1028,0 - 0 0,0
17.01.2017 01:00:00 -6,0 -8,0 -12,2 2,8 5,8 5 3 12 7 NE 1028,0 - 0 0,0
17.01.2017 00:00:00 -5,4 -7,8 -11,7 2,8 5,8 5 3 20 11 NE 1027,7 - 0 0,0
16.01.2017 23:00:00 -4,8 -7,4 -10,3 2,9 5,8 10 5 22 12 NE 1027,5 - 0 0,0
16.01.2017 22:00:00 -5,3 -7,0 -10,9 2,9 5,8 5 3 12 6 NE 1027,3 - 0 0,0
16.01.2017 21:00:00 -4,1 -6,4 -9,2 2,9 5,9 7 4 21 11 NNE 1027,1 - 0 0,0
16.01.2017 20:00:00 -3,2 -6,5 -7,3 2,9 5,9 6 4 19 11 NE 1026,5 - 0 0,0
16.01.2017 19:00:00 -1,9 -5,4 -4,0 2,8 5,8 8 4 17 9 NNE 1026,0 - 0 0,0
16.01.2017 18:00:00 -1,7 -4,5 -4,3 2,9 5,8 6 3 17 9 NE 1025,6 - 0 0,0
16.01.2017 17:00:00 -0,9 -3,8 -1,7 2,8 5,8 8 5 21 11 NNE 1025,1 20 35 0,0
16.01.2017 16:00:00 -0,9 -4,4 -1,3 2,8 5,9 10 5 24 13 NNE 1024,8 20 13 0,0
16.01.2017 15:00:00 -0,8 -4,3 -0,7 2,8 5,8 12 7 25 14 NNE 1024,5 20 18 0,0
16.01.2017 14:00:00 -0,2 -4,6 -1,3 2,8 5,8 11 6 28 15 NE 1024,3 20 38 0,0
16.01.2017 13:00:00 -0,4 -4,3 1,1 2,8 5,8 11 6 27 15 NE 1024,5 20 53 0,0
16.01.2017 12:00:00 -0,5 -4,4 0,4 2,9 5,8 11 6 29 16 NE 1024,6 20 60 0,0
16.01.2017 11:00:00 -1,4 -3,6 -5,8 2,8 5,8 5 3 18 10 NE 1024,6 15 60 0,0
16.01.2017 10:00:00 -2,0 -3,3 -7,1 2,9 5,9 7 4 27 14 NE 1024,4 8 5 0,0
16.01.2017 09:00:00 -2,9 -3,7 -7,2 2,9 5,8 4 2 15 8 NNE 1024,0 6 0 0,0
16.01.2017 08:00:00 -1,7 -2,3 -3,5 2,8 5,8 3 2 9 5 NE 1023,2 - 0 0,0
16.01.2017 07:00:00 -1,1 -1,5 -1,8 2,9 5,8 0 0 8 4 N 1022,6 0,5 0 0,8
16.01.2017 06:00:00 -0,7 -1,0 -0,7 2,9 5,8 3 2 5 3 NNE 1022,2 0,5 0 1,0
16.01.2017 05:00:00 -0,6 -1,0 -0,7 2,9 5,9 0 0 5 3 N 1022,2 - 0 0,2
16.01.2017 04:00:00 -0,5 -0,9 -0,8 2,9 5,8 0 0 4 2 N 1022,4 - 0 0,0
16.01.2017 03:00:00 -0,4 -0,8 -0,8 2,9 5,9 0 0 3 2 N 1022,8 - 0 0,0
16.01.2017 02:00:00 -0,5 -0,9 -1,1 2,9 5,9 0 0 2 1 N 1022,9 - 0 0,0
16.01.2017 01:00:00 -0,5 -1,1 -1,2 2,8 5,8 0 0 2 1 N 1023,3 - 0 0,0
16.01.2017 00:00:00 -0,3 -0,9 -0,6 2,9 5,8 0 0 4 2 N 1023,6 - 0 0,2
15.01.2017 23:00:00 -0,2 -1,0 -0,8 2,9 5,9 3 1 6 3 OSO 1023,9 - 0 0,0
15.01.2017 22:00:00 -0,4 -1,1 -0,9 2,9 5,9 0 0 6 3 N 1024,3 - 0 0,0

tt = Temperatura
td = dewpoint
tt 5cm = Temperatura 5cm
tt -20cm = Temperatura -20cm
tt -100cm = Temperatura -100cm
ff = velocità del vento
fx = gusts
dd = direzione del vento
ppp = reduced air pressure
vv = visibility
sd = ore di luce
rr = precipitazioni

Stazioni seguenti

WeatherPro
AMSI
MeteoEarth